Weather History for Pensacola NAS, FL

Change the Weather History Date:

Sunday, September 22, 2013

  Actual Average Record
Temperature  
Mean Temperature 74 °F -  
Max Temperature 79 °F 83 °F 91 °F (2001)
Min Temperature 69 °F 67 °F 56 °F (1999)
Cooling Degree Days 8    
Growing Degree Days 24 (Base 50)    
Moisture  
Dew Point 71 °F    
Average Humidity 93    
Maximum Humidity 100    
Minimum Humidity 81    
Precipitation  
Precipitation 0.27 in - - ()
Sea Level Pressure  
Sea Level Pressure 29.77 in    
Wind  
Wind Speed 6 mph (NNE)    
Max Wind Speed 12 mph    
Max Gust Speed -    
Visibility 8 miles    
Events Rain    
Averages and records for this station are not official NWS values.
T = Trace of Precipitation, MM = Missing Value Source: NWS Daily Summary

Daily Weather History Graph

Daily Weather History Graph

Search for Another Location

Airport:

Trip Planner

Search our weather history database for the weather conditions in past years. The results will help you decide how hot, cold, wet, or windy it might be!

Date:

Astronomy

Sep. 22, 2013 Rise Set
Actual Time 6:37 AM CDT 6:45 PM CDT
Civil Twilight 6:13 AM CDT 7:09 PM CDT
Nautical Twilight 5:45 AM CDT 7:37 PM CDT
Astronomical Twilight 5:17 AM CDT 8:05 PM CDT
Moon 8:52 PM CDT (9/22) 9:41 AM CDT (9/22)
Length of Visible Light 12h 55m
Length of Day
12h 07m
Waning Gibbous, 88% of the Moon is Illuminated
Sep 22
Waning Gibbous
Sep 26
Last Quarter
Oct 4
New
Oct 11
First Quarter
Oct 18
Full

Hourly Weather History & Observations

Time (CDT) Temp. Dew Point Humidity Pressure Visibility Wind Dir Wind Speed Gust Speed Precip Events Conditions
12:56 AM 75.0 °F 73.9 °F 96% 29.76 in 9.0 mi Calm Calm - 0.00 in Rain Light Rain
1:29 AM 75.2 °F 73.4 °F 94% 29.75 in 10.0 mi SSW 5.8 mph - 0.00 in Rain Light Rain
1:40 AM 75.2 °F 73.4 °F 94% 29.75 in 3.0 mi Calm Calm - 0.04 in Rain Heavy Rain
1:54 AM 73.4 °F 71.6 °F 94% 29.75 in 10.0 mi Calm Calm - 0.04 in Rain Light Rain
1:56 AM 73.9 °F 72.0 °F 93% 29.75 in 10.0 mi Calm Calm - 0.04 in Rain Light Rain
2:05 AM 73.4 °F 73.4 °F 100% 29.75 in 3.0 mi NW 4.6 mph - 0.04 in Rain Heavy Rain
2:11 AM 73.4 °F 71.6 °F 94% 29.74 in 1.8 mi NW 6.9 mph - 0.11 in Rain Heavy Rain
2:19 AM 73.4 °F 71.6 °F 94% 29.74 in 3.0 mi NW 6.9 mph - 0.13 in Rain Rain
2:25 AM 73.4 °F 71.6 °F 94% 29.74 in 7.0 mi NNW 6.9 mph - 0.13 in Rain Light Rain
2:56 AM 72.0 °F 71.1 °F 97% 29.75 in 10.0 mi North 4.6 mph - 0.13 in Rain Light Rain
3:56 AM 71.1 °F 70.0 °F 96% 29.74 in 10.0 mi North 4.6 mph - 0.00 in Rain Light Rain
4:56 AM 71.1 °F 70.0 °F 96% 29.74 in 10.0 mi North 10.4 mph - 0.00 in   Overcast
5:56 AM 70.0 °F 69.1 °F 97% 29.75 in 10.0 mi NNE 8.1 mph - N/A   Overcast
6:38 AM 69.8 °F 69.8 °F 100% 29.74 in 10.0 mi NNE 9.2 mph - N/A   Mostly Cloudy
6:56 AM 70.0 °F 69.1 °F 97% 29.75 in 10.0 mi North 6.9 mph - N/A   Overcast
7:38 AM 69.8 °F 69.8 °F 100% 29.76 in 10.0 mi NNE 8.1 mph - N/A   Overcast
7:45 AM 69.8 °F 69.8 °F 100% 29.76 in 10.0 mi NNE 9.2 mph - N/A   Overcast
7:56 AM 70.0 °F 69.1 °F 97% 29.77 in 10.0 mi NNE 8.1 mph - N/A   Overcast
8:53 AM 71.6 °F 69.8 °F 94% 29.77 in 10.0 mi NE 10.4 mph - N/A   Overcast
8:56 AM 71.1 °F 69.1 °F 93% 29.78 in 10.0 mi NE 8.1 mph - N/A   Overcast
9:32 AM 71.6 °F 69.8 °F 94% 29.79 in 10.0 mi NE 9.2 mph - N/A   Overcast
9:56 AM 73.0 °F 69.1 °F 87% 29.80 in 10.0 mi NNE 11.5 mph - N/A   Overcast
10:56 AM 73.9 °F 70.0 °F 87% 29.80 in 10.0 mi NNE 6.9 mph - N/A   Overcast
11:14 AM 73.4 °F 69.8 °F 88% 29.80 in 10.0 mi NE 9.2 mph - N/A   Overcast
11:36 AM 73.4 °F 71.6 °F 94% 29.80 in 2.0 mi NE 5.8 mph - N/A Rain Rain
11:43 AM 73.4 °F 71.6 °F 94% 29.80 in 1.2 mi NE 5.8 mph - N/A Rain Heavy Rain
11:53 AM 71.6 °F 71.6 °F 100% 29.80 in 1.0 mi NE 9.2 mph - N/A Rain Heavy Rain
11:56 AM 72.0 °F 71.1 °F 97% 29.81 in 1.0 mi NE 8.1 mph - N/A Rain Heavy Rain
12:24 PM 73.4 °F 71.6 °F 94% 29.80 in 2.0 mi NE 6.9 mph - 0.10 in Rain Rain
12:38 PM 73.4 °F 71.6 °F 94% 29.79 in 3.0 mi NNE 8.1 mph - 0.10 in Rain Light Rain
12:56 PM 73.9 °F 72.0 °F 93% 29.79 in 7.0 mi NNE 10.4 mph - 0.10 in   Overcast
1:45 PM 75.2 °F 73.4 °F 94% 29.77 in 10.0 mi NNE 8.1 mph - N/A   Overcast
1:56 PM 75.9 °F 73.0 °F 91% 29.78 in 10.0 mi NNE 10.4 mph - N/A   Overcast
2:56 PM 78.1 °F 73.0 °F 84% 29.75 in 10.0 mi NNE 10.4 mph - N/A   Overcast
3:38 PM 77.0 °F 73.4 °F 89% 29.73 in 10.0 mi NNE 9.2 mph - N/A   Overcast
3:56 PM 77.0 °F 73.0 °F 88% 29.74 in 10.0 mi NE 6.9 mph - N/A   Overcast
4:56 PM 77.0 °F 73.0 °F 88% 29.75 in 10.0 mi NNE 9.2 mph - N/A   Overcast
5:39 PM 78.8 °F 73.4 °F 83% 29.75 in 10.0 mi North 6.9 mph - N/A   Mostly Cloudy
5:56 PM 78.1 °F 72.0 °F 81% 29.76 in 10.0 mi North 6.9 mph - N/A   Mostly Cloudy
6:28 PM 77.0 °F 73.4 °F 89% 29.76 in 10.0 mi NNE 8.1 mph - N/A   Overcast
6:56 PM 75.9 °F 73.0 °F 91% 29.77 in 10.0 mi NNE 8.1 mph - N/A   Overcast
7:21 PM 75.2 °F 71.6 °F 89% 29.76 in 10.0 mi NNE 10.4 mph - N/A   Overcast
7:56 PM 75.0 °F 70.0 °F 84% 29.77 in 10.0 mi NNE 10.4 mph - N/A   Overcast
8:30 PM 75.2 °F 71.6 °F 89% 29.78 in 10.0 mi North 5.8 mph - N/A   Overcast
8:56 PM 73.9 °F 71.1 °F 91% 29.80 in 10.0 mi NE 3.5 mph - N/A   Overcast
9:56 PM 73.9 °F 71.1 °F 91% 29.80 in 10.0 mi North 5.8 mph - N/A   Partly Cloudy
10:56 PM 73.0 °F 71.1 °F 93% 29.79 in 10.0 mi North 8.1 mph - N/A   Clear
11:56 PM 73.0 °F 71.1 °F 93% 29.78 in 10.0 mi North 8.1 mph - N/A   Clear